Weather History for Campeche, Mexico

Change the Weather History Date:

Monday, October 22, 2012

  Actual Average Record
Temperature  
Mean Temperature 84 °F -  
Max Temperature 93 °F 84 °F 95 °F (2013)
Min Temperature 74 °F 69 °F 64 °F (2011)
Cooling Degree Days 18    
Growing Degree Days 34 (Base 50)    
Moisture  
Dew Point 75 °F    
Average Humidity 80    
Maximum Humidity 100    
Minimum Humidity 54    
Precipitation  
Precipitation 0.00 in - - ()
Sea Level Pressure  
Sea Level Pressure 29.87 in    
Wind  
Wind Speed 7 mph ()    
Max Wind Speed 12 mph    
Max Gust Speed 23 mph    
Visibility 6.3 miles    
Events Fog    
Averages and records for this station are not official NWS values.
T = Trace of Precipitation, MM = Missing Value Source: Averaged Metar Reports

Daily Weather History Graph

Daily Weather History Graph

Search for Another Location

Airport:

Trip Planner

Search our weather history database for the weather conditions in past years. The results will help you decide how hot, cold, wet, or windy it might be!

Date:

Astronomy

Oct. 22, 2012 Rise Set
Actual Time 6:59 AM CDT 6:33 PM CDT
Civil Twilight 6:36 AM CDT 6:55 PM CDT
Nautical Twilight 6:11 AM CDT 7:21 PM CDT
Astronomical Twilight 5:45 AM CDT 7:47 PM CDT
Moon 1:52 PM CDT (10/22) 12:40 AM CDT (10/22)
Length of Visible Light 12h 18m
Length of Day
11h 33m
First Quarter, 56% of the Moon is Illuminated
Oct 22
First Quarter
Oct 29
Full
Nov 6
Last Quarter
Nov 13
New
Nov 20
First Quarter

Hourly Weather History & Observations

Time (CDT) Temp. Heat Index Dew Point Humidity Pressure Visibility Wind Dir Wind Speed Gust Speed Precip Events Conditions
12:50 AM 78 °F - 76 °F 90% 29.91 in 4 mi ENE 6.7 mph - -   Mostly Cloudy
3:50 AM 77 °F - 74 °F 90% 29.87 in 4 mi East 4.5 mph - -  
5:14 AM 77.0 °F - 75.2 °F 94% 29.88 in 7.0 mi Calm Calm - N/A   Scattered Clouds
5:42 AM 77.0 °F - 75.2 °F 94% 29.88 in 7.0 mi ENE 6.9 mph - N/A   Mostly Cloudy
6:48 AM 75.2 °F - 75.2 °F 100% 29.91 in 4.0 mi Calm Calm - N/A Fog Fog
6:50 AM 74 °F - 73 °F 96% 29.90 in 6 mi ENE 2.2 mph - -   Clear
7:45 AM 75.2 °F - 73.4 °F 94% 29.91 in 5.0 mi NNE 6.9 mph - N/A Fog Fog
8:44 AM 78.8 °F - 73.4 °F 83% 29.91 in 6.0 mi NE 11.5 mph - N/A   Scattered Clouds
9:40 AM 80.6 °F 85.4 °F 73.4 °F 79% 29.93 in 7.0 mi East 11.5 mph 23.0 mph N/A   Partly Cloudy
9:50 AM 83 °F - 75 °F 70% 29.93 in 6 mi ENE 6.7 mph - -  
10:55 AM 82.4 °F 89.5 °F 75.2 °F 79% 29.93 in 7.0 mi East 11.5 mph - N/A   Scattered Clouds
11:42 AM 84.2 °F 92.3 °F 75.2 °F 74% 29.91 in 7.0 mi East 11.5 mph - N/A   Scattered Clouds
12:48 PM 90 °F - 75 °F 54% 29.89 in 6 mi ENE 6.7 mph - -   Partly Cloudy
12:52 PM 87.8 °F 97.6 °F 75.2 °F 66% 29.89 in 7.0 mi East 8.1 mph - N/A   Scattered Clouds
1:40 PM 87.8 °F 95.6 °F 73.4 °F 62% 29.85 in 7.0 mi East 6.9 mph - N/A   Scattered Clouds
2:42 PM 89.6 °F 99.8 °F 75.2 °F 62% 29.83 in 7.0 mi East 11.5 mph - N/A   Scattered Clouds
3:43 PM 87.8 °F 97.6 °F 75.2 °F 66% 29.82 in 7.0 mi North 11.5 mph - N/A   Scattered Clouds
3:48 PM 87 °F - 75 °F 60% 29.82 in 6 mi NNW 4.5 mph - -   Partly Cloudy
4:40 PM 86.0 °F 96.9 °F 77.0 °F 74% 29.81 in 7.0 mi North 11.5 mph - N/A   Scattered Clouds
5:42 PM 84.2 °F 94.1 °F 77.0 °F 79% 29.81 in 7.0 mi North 11.5 mph 23.0 mph N/A   Partly Cloudy
6:42 PM 84.2 °F 94.1 °F 77.0 °F 79% 29.82 in 7.0 mi NNW 11.5 mph - N/A   Clear
6:50 PM 84 °F - 78 °F 76% 29.82 in 5 mi NNW 6.7 mph - -  
7:41 PM 84.2 °F 96.1 °F 78.8 °F 84% 29.83 in 7.0 mi North 11.5 mph 23.0 mph N/A   Clear
8:43 PM 84.2 °F 96.1 °F 78.8 °F 84% 29.85 in 7.0 mi North 11.5 mph - N/A   Clear
9:42 PM 80.6 °F 86.2 °F 75.2 °F 84% 29.88 in 7.0 mi NNE 11.5 mph - N/A   Clear
9:50 PM 80 °F - 75 °F 80% 29.89 in 4 mi NE 4.5 mph - -  
10:42 PM 78.8 °F - 75.2 °F 89% 29.90 in 7.0 mi NNE 11.5 mph - N/A   Clear
11:42 PM 77.0 °F - 75.2 °F 94% 29.89 in 7.0 mi NNE 11.5 mph - N/A   Clear